[[{"header":{"parameterUnit":"m.s-1","parameterCategory":1,"la1":30.2991,"la2":30.254,"lo1":-89.0895,"lo2":-89.0444,"dy":0.0017,"dx":0.0017,"nx":28,"ny":28,"refTime":"2025-04-02T09:00:00:Z","depth":0,"parameterNumber":2,"parameterNumberName":"U-component_of_WINDS"},"data":[0,0,0,0,0,0,0,0,0,0,0,0,0,0,0,0,0,0,0,0,0,0,0,0,0,0,0,0,0,0,0,0,0,0,0,0,0,0,0,0,0,0,0,0,0,0,0,0,0,0,0,0,0,0,0,0,0,0,-4.4201,-4.4202,0,-4.4338,-4.4339,-4.4341,-4.4363,-4.4361,-4.436,-4.4359,-4.4499,-4.4504,-4.4508,0,0,0,0,0,0,0,0,0,0,0,0,0,-4.3959,-4.3964,-4.4201,-4.4203,-4.4204,-4.4338,-4.4339,-4.4341,-4.4363,-4.4361,-4.436,-4.4359,-4.4497,-4.4503,-4.4509,0,0,0,0,0,0,0,0,0,0,0,0,0,-4.4077,-4.3965,-4.4201,-4.4231,-4.4235,-4.4337,-4.434,-4.4342,-4.4363,-4.4361,-4.436,-4.4358,-4.4495,-4.4503,-4.451,-4.4591,0,0,-4.4532,-4.4535,0,0,0,0,0,0,0,0,-4.407,-4.4086,-4.4225,-4.4229,-4.4234,-4.4331,-4.4306,-4.4425,-4.4364,-4.4315,-4.4359,-4.4357,-4.4445,-4.4456,-4.4486,-4.4597,-4.4603,-4.4533,-4.4537,-4.454,-4.4542,0,0,0,0,0,0,0,-4.4062,-4.408,-4.4255,-4.4227,-4.4233,-4.4238,-4.4253,-4.4328,-4.4388,-4.4319,-4.4321,-4.4337,-4.4447,-4.4479,-4.4489,-4.4605,-4.4532,-4.4539,-4.4543,-4.4546,-4.4791,-4.4793,0,0,0,0,0,0,-4.4048,-4.4073,-4.4251,-4.4259,-4.4146,-4.4244,-4.4261,-4.4302,-4.4387,-4.4399,-4.4338,-4.4337,-4.4467,-4.4481,-4.4494,-4.4594,-4.454,-4.4547,-4.4551,-4.4789,-4.4792,-4.4794,0,0,0,0,0,0,-4.4043,-4.4064,-4.4245,-4.4167,-4.419,-4.425,-4.4296,-4.4306,-4.4337,-4.4402,-4.4413,-4.4359,-4.4466,-4.4484,-4.4567,-4.4599,-4.455,-4.4557,-4.4786,-4.479,-4.4793,-4.4795,0,0,0,0,0,0,-4.4036,-4.4062,-4.4093,-4.4167,-4.4194,-4.4315,-4.4298,-4.431,-4.435,-4.435,-4.4425,-4.4435,-4.4466,-4.4556,-4.4574,-4.4608,-4.4562,-4.4784,-4.4788,-4.4792,-4.4792,-4.4798,-4.4803,0,0,0,0,0,-4.4027,-4.4088,-4.4094,-4.4116,-4.4234,-4.4317,-4.4332,-4.4366,-4.4352,-4.4384,-4.4426,-4.4433,-4.4593,-4.4564,-4.4585,-4.4622,-4.4782,-4.4787,-4.4791,-4.479,-4.4797,-4.4803,0,0,0,0,0,0,-4.4015,-4.4098,-4.4106,-4.4192,-4.4248,-4.432,-4.4361,-4.4373,-4.4433,-4.443,-4.447,-4.4487,-4.4568,-4.4604,-4.4569,-4.4705,-4.4687,-4.4696,-4.4678,-4.4685,-4.4691,-4.4679,-4.4568,0,0,0,0,0,-4.4023,-4.4083,-4.4152,-4.4222,-4.4249,-4.43,-4.4338,-4.4359,-4.4418,-4.4441,-4.4489,-4.4546,-4.4609,-4.465,-4.4711,-4.4799,-4.4815,-4.4835,-4.484,-4.4844,-4.4851,-4.49,-4.4909,-4.481,-4.481,-4.481,0,0,-4.4038,-4.4091,-4.4126,-4.422,-4.4266,-4.4327,-4.432,-4.4385,-4.4431,-4.4451,-4.4532,-4.4569,-4.4636,-4.4721,-4.4761,-4.4753,-4.4882,-4.485,-4.4853,-4.4857,-4.4905,-4.4915,-4.4923,-4.4813,-4.4812,-4.4812,0,0,-4.4098,-4.4144,-4.4207,-4.4253,-4.4322,-4.4356,-4.4371,-4.4443,-4.4469,-4.4551,-4.4567,-4.4623,-4.4731,-4.4778,-4.4815,-4.4895,-4.4904,-4.4915,-4.4941,-4.4988,-4.4996,-4.5003,-4.5031,-4.504,-4.4922,-4.4922,-4.4922,0,-4.4108,-4.4201,-4.4238,-4.4303,-4.4343,-4.4366,-4.443,-4.4473,-4.4558,-4.4586,-4.4577,-4.4714,-4.476,-4.4856,-4.4876,-4.4906,-4.4925,-4.4905,-4.4992,-4.4999,-4.5007,-4.5033,-4.5044,-4.4922,-4.4922,-4.4922,-4.4922,0,-4.421,-4.4275,-4.4317,-4.4399,-4.4446,-4.451,-4.4557,-4.4599,-4.4618,-4.4653,-4.4737,-4.4794,-4.4868,-4.4893,-4.4911,-4.4993,-4.4985,-4.4984,-4.4965,-4.5016,-4.5042,-4.5052,-4.4923,-4.4923,-4.4923,-4.4923,0,0,-4.4263,-4.4366,-4.4381,-4.4419,-4.4498,-4.4548,-4.4614,-4.4687,-4.4722,-4.4781,-4.4837,-4.4929,-4.4929,-4.4971,-4.4996,-4.5038,-4.5097,-4.5031,-4.5033,-4.504,-4.5189,-4.5188,-4.5199,-4.5104,-4.5106,-4.5108,-4.5183,0,-4.433,-4.4448,-4.4484,-4.4582,-4.4642,-4.4666,-4.4723,-4.4778,-4.4813,-4.487,-4.491,-4.4974,-4.4969,-4.4995,-4.5037,-4.508,-4.5127,-4.5076,-4.5156,-4.5158,-4.5136,-4.5213,-4.5212,-4.528,-4.5193,-4.5195,-4.5196,0,-4.4424,-4.4485,-4.4589,-4.4661,-4.4687,-4.4738,-4.4808,-4.4862,-4.4925,-4.4948,-4.4997,-4.5019,-4.5089,-4.5069,-4.5166,-4.5131,-4.5166,-4.5193,-4.5196,-4.5203,-4.5178,-4.522,-4.5303,-4.5312,-4.5213,-4.5211,-4.521,0,-4.445,-4.4559,-4.4635,-4.4667,-4.4753,-4.4788,-4.4826,-4.4887,-4.4929,-4.4991,-4.5018,-4.5087,-4.5125,-4.5178,-4.5218,-4.52,-4.5312,-4.5295,-4.5332,-4.5331,-4.5352,-4.535,-4.5439,-4.5379,-4.5379,-4.5378,-4.5378,0,-4.4521,-4.4583,-4.4648,-4.4695,-4.4766,-4.4808,-4.4877,-4.4916,-4.4971,-4.5026,-4.5052,-4.5103,-4.5154,-4.5212,-4.5244,-4.5319,-4.5337,-4.5357,-4.5364,-4.5354,-4.5351,-4.5375,-4.5371,-4.5381,-4.5381,-4.538,-4.538,0,-4.4561,-4.4607,-4.4692,-4.4767,-4.4787,-4.4836,-4.4901,-4.4947,-4.4985,-4.5055,-4.5073,-4.5132,-4.5202,-4.5248,-4.5338,-4.5359,-4.5441,-4.5448,-4.5419,-4.5423,-4.5457,-4.5452,-4.5564,-4.558,-4.551,-4.5511,-4.5511,0,-4.4602,-4.465,-4.4731,-4.477,-4.4808,-4.487,-4.4913,-4.4957,-4.5,-4.5077,-4.5114,-4.5186,-4.5245,-4.5357,-4.5407,-4.5476,-4.5484,-4.5519,-4.5495,-4.5482,-4.5483,-4.5479,-4.5484,-4.5522,-4.5522,-4.5523,-4.5523,0,-4.4669,-4.469,-4.475,-4.4819,-4.487,-4.4926,-4.4983,-4.5013,-4.5067,-4.5115,-4.5187,-4.5233,-4.5325,-4.5396,-4.547,-4.5509,-4.5525,-4.5531,-4.5543,-4.5531,-4.5512,-4.5521,-4.5428,-4.5527,-4.5527,-4.5526,-4.5526,-4.5526,-4.471,-4.4754,-4.4818,-4.4885,-4.4932,-4.4985,-4.5032,-4.5077,-4.5137,-4.5215,-4.5238,-4.5313,-4.5377,-4.5477,-4.5518,-4.5578,-4.5574,-4.5592,-4.5596,-4.5599,-4.5598,-4.5504,-4.5592,-4.5592,-4.5592,-4.5592,-4.5592,0,-4.4777,-4.482,-4.4881,-4.4959,-4.5012,-4.5024,-4.5088,-4.5131,-4.5196,-4.5254,-4.5313,-4.5396,-4.5465,-4.5523,-4.5595,-4.5631,-4.564,-4.5648,-4.5645,-4.5654,-4.5599,-4.558,-4.564,-4.564,-4.564,-4.564,-4.564,-4.564,-4.4818,-4.4893,-4.4922,-4.5022,-4.5065,-4.5138,-4.5173,-4.5222,-4.5269,-4.536,-4.5418,-4.5455,-4.5513,-4.559,-4.5654,-4.5669,-4.5694,-4.57,-4.5717,-4.5663,-4.5658,-4.5652,-4.5635,-4.5706,-4.5706,-4.5767,-4.5768,-4.5768]},{"header":{"parameterUnit":"m.s-1","parameterCategory":1,"la1":30.2991,"la2":30.254,"lo1":-89.0895,"lo2":-89.0444,"dy":0.0017,"dx":0.0017,"nx":28,"ny":28,"refTime":"2025-04-02T09:00:00:Z","depth":0,"parameterNumber":3,"parameterNumberName":"V-component_of_WINDS"},"data":[0,0,0,0,0,0,0,0,0,0,0,0,0,0,0,0,0,0,0,0,0,0,0,0,0,0,0,0,0,0,0,0,0,0,0,0,0,0,0,0,0,0,0,0,0,0,0,0,0,0,0,0,0,0,0,0,0,0,4.92,4.9201,0,4.9298,4.9299,4.93,4.9307,4.9306,4.9305,4.9304,4.9402,4.9405,4.9409,0,0,0,0,0,0,0,0,0,0,0,0,0,4.9018,4.9022,4.92,4.9201,4.9202,4.9298,4.9299,4.9301,4.9307,4.9306,4.9305,4.9304,4.9401,4.9405,4.9409,0,0,0,0,0,0,0,0,0,0,0,0,0,4.9105,4.9023,4.92,4.9217,4.922,4.9298,4.9299,4.9301,4.9308,4.9306,4.9304,4.9303,4.9399,4.9405,4.941,4.9476,0,0,4.9426,4.9429,0,0,0,0,0,0,0,0,4.91,4.9111,4.9214,4.9216,4.9219,4.9289,4.9271,4.9359,4.9308,4.9274,4.9304,4.9302,4.9365,4.9373,4.9395,4.948,4.9485,4.9427,4.943,4.9433,4.9434,0,0,0,0,0,0,0,4.9094,4.9107,4.9239,4.9215,4.9219,4.922,4.9231,4.9288,4.9328,4.9277,4.9278,4.929,4.9367,4.939,4.9398,4.9486,4.9427,4.9432,4.9435,4.9437,4.9633,4.9635,0,0,0,0,0,0,4.9085,4.9102,4.9236,4.9242,4.9154,4.9225,4.9237,4.9268,4.9327,4.9335,4.9291,4.9289,4.9382,4.9391,4.9401,4.9484,4.9432,4.9438,4.9441,4.9631,4.9633,4.9636,0,0,0,0,0,0,4.9081,4.9097,4.9232,4.9172,4.919,4.923,4.9265,4.9271,4.9294,4.9337,4.9344,4.9308,4.9381,4.9394,4.9458,4.9488,4.944,4.9445,4.9629,4.9632,4.9635,4.965,0,0,0,0,0,0,4.9075,4.9095,4.912,4.9173,4.9193,4.9287,4.9267,4.9274,4.9304,4.9303,4.9355,4.9362,4.938,4.945,4.9463,4.9494,4.9449,4.9626,4.963,4.9634,4.9647,4.9653,4.9658,0,0,0,0,0,4.9069,4.912,4.9122,4.9138,4.9225,4.9289,4.93,4.9321,4.9306,4.9333,4.9361,4.936,4.9482,4.9456,4.9472,4.9505,4.9625,4.9629,4.9633,4.9644,4.9652,4.9658,0,0,0,0,0,0,4.9068,4.9127,4.913,4.9199,4.9239,4.929,4.9323,4.9328,4.9372,4.9369,4.9393,4.9404,4.9469,4.9493,4.9463,4.9573,4.9552,4.9559,4.9555,4.9562,4.9568,4.9561,4.9454,0,0,0,0,0,4.9076,4.9123,4.9172,4.9228,4.9248,4.9282,4.931,4.9324,4.9366,4.9382,4.9415,4.9455,4.9503,4.9534,4.958,4.965,4.9663,4.9681,4.9686,4.9691,4.9697,4.9739,4.9748,4.965,4.965,4.965,0,0,4.9093,4.9131,4.9159,4.9229,4.9261,4.931,4.9296,4.9347,4.9384,4.939,4.9454,4.9479,4.9526,4.9595,4.9626,4.9617,4.9727,4.9696,4.97,4.9704,4.9744,4.9754,4.9762,4.9653,4.9653,4.9652,0,0,4.9149,4.9181,4.9233,4.9267,4.9317,4.934,4.9352,4.9404,4.9421,4.9486,4.9492,4.9536,4.9616,4.9651,4.9678,4.975,4.9752,4.9764,4.9794,4.9834,4.9842,4.9849,4.9876,4.9885,4.977,4.977,4.977,0,4.9163,4.9237,4.9259,4.9311,4.9343,4.9352,4.9405,4.9436,4.9499,4.952,4.9509,4.9613,4.9645,4.9723,4.9741,4.9762,4.9778,4.9758,4.9839,4.9846,4.9853,4.9879,4.9889,4.9772,4.9772,4.9771,4.9771,0,4.9253,4.9304,4.934,4.9402,4.9437,4.9489,4.952,4.9553,4.9563,4.9588,4.9654,4.9694,4.9749,4.9768,4.9778,4.9848,4.9841,4.9834,4.9813,4.9863,4.9889,4.9899,4.9774,4.9773,4.9773,4.9772,0,0,4.9309,4.9385,4.9398,4.9428,4.9485,4.9525,4.9578,4.9634,4.9663,4.9705,4.9752,4.9821,4.9816,4.9848,4.9862,4.9897,4.9954,4.9886,4.9887,4.9899,5.0036,5.0042,5.0053,4.9956,4.9958,4.9959,5.0033,0,4.9373,4.9469,4.9492,4.9574,4.9623,4.9634,4.9681,4.9721,4.9745,4.979,4.9817,4.9867,4.9855,4.9875,4.991,4.9939,4.9982,4.9934,4.9999,5.0002,4.9989,5.0066,5.0072,5.014,5.0043,5.0044,5.0046,0,4.9459,4.9507,4.9595,4.9648,4.9669,4.9711,4.9765,4.9808,4.9854,4.987,4.9907,4.9918,4.9974,4.9951,5.003,4.9997,5.0025,5.0044,5.0047,5.0054,5.0027,5.0077,5.0162,5.0173,5.0061,5.006,5.0059,0,4.9495,4.958,4.9644,4.9669,4.9732,4.9762,4.9789,4.9835,4.9867,4.9914,4.9936,4.9989,5.0018,5.0058,5.0084,5.0064,5.0162,5.0139,5.0177,5.0176,5.0197,5.0196,5.0289,5.0213,5.0213,5.0213,5.0213,0,4.9564,4.9618,4.9662,4.9701,4.9762,4.9788,4.9848,4.9875,4.9916,4.9962,4.9973,5.0016,5.0046,5.0093,5.0113,5.0177,5.0189,5.0204,5.0209,5.0204,5.0202,5.0223,5.0219,5.0216,5.0215,5.0215,5.0214,0,4.9614,4.9645,4.9716,4.9771,4.9786,4.9829,4.9876,4.9916,4.9941,4.9999,5.0014,5.0054,5.011,5.0139,5.0208,5.0222,5.0294,5.0296,5.0279,5.0281,5.0318,5.0315,5.0429,5.0446,5.0357,5.0358,5.0359,0,4.9656,4.9698,4.9759,4.9791,4.982,4.9871,4.9905,4.9933,4.9968,5.0026,5.0058,5.0115,5.0162,5.0252,5.0287,5.034,5.0344,5.038,5.0352,5.0347,5.0347,5.0345,5.035,5.0385,5.0386,5.0387,5.0388,0,4.973,4.9744,4.9793,4.9849,4.989,4.9935,4.9979,5.0004,5.0039,5.0078,5.0136,5.0173,5.0246,5.0303,5.036,5.0388,5.0394,5.0396,5.0408,5.0404,5.0393,5.0402,5.0294,5.0394,5.0393,5.0393,5.0392,5.0392,4.9779,4.9818,4.9867,4.9922,4.9959,5.0,5.0041,5.0072,5.0122,5.0184,5.0197,5.0259,5.0306,5.0384,5.0414,5.0463,5.0456,5.0473,5.0477,5.0481,5.0484,5.0385,5.0474,5.0473,5.0473,5.0473,5.0473,0,4.9854,4.9887,4.9938,5.0,5.0044,5.0047,5.0097,5.0133,5.0188,5.0232,5.0279,5.0348,5.0404,5.0444,5.0501,5.0533,5.0537,5.0547,5.0546,5.0553,5.0486,5.0471,5.0543,5.0543,5.0543,5.0543,5.0543,5.0543,4.9899,4.9966,4.9986,5.0072,5.0104,5.0166,5.0194,5.0233,5.0269,5.0345,5.0392,5.0418,5.0462,5.0522,5.0574,5.0585,5.0606,5.0616,5.0627,5.0564,5.0557,5.055,5.0536,5.062,5.062,5.0689,5.069,5.069]}]]